Погода в Камари

Греция     36°22′45″N   25°28′32″E
темп.,
°C
ветер,
м/с
пор.,
м/с
влажн.,
%
обл.,
%
осадки,
мм/ч
давл.,
гПа
погр.,
м
11 апреля, вс
вс1100:00+13ссз89510 0.0 10241127
03:00+13ссз89521 0.0 10231224
06:00+13ссз89530 0.0 10221169
09:00+13ссз89540 0.0 10231185
12:00+14с89490 0.0 10241235
15:00+14ссз910500 0.0 10231205
18:00+14с910530 0.0 10231064
21:00+14с89565 0.0 1023775
12 апреля, пн
пн1200:00+14ссз89560 0.0 1024881
03:00+14ссз910530 0.0 1023975
06:00+14ссз99500 0.0 1022909
09:00+14с78530 0.0 1023777
12:00+14с56520 0.0 1023807
15:00+15с45490 0.0 1022726
18:00+15с66530 0.0 1021675
21:00+15с33510 0.0 1021461
13 апреля, вт
вт1300:00+15ссз33554 0.0 1021425
03:00+15сз445593 0.0 1020488
06:00+15с335699 0.0 1019371
09:00+15ссз11525 0.0 1020235
12:00+15юз225079 0.0 1020300
15:00+16ю22495 0.0 1019334
18:00+16ююз23515 0.0 1018315
21:00+16ююв4466100 0.0 1018221
14 апреля, ср
ср1400:00+16ююв4571100 0.0 1017227
03:00+16ююв4573100 0.0 1016227
06:00+16ююв4675100 0.0 1015295
09:00+16ююв6679100 0.0 1015241
12:00+16ююв56775 0.0 1015287
15:00+17ююз22733 0.0 1014123
18:00+17з33695 0.0 1013159
21:00+16зюз6108365 0.0 1014512
15 апреля, чт
чт1500:00+16зюз811736 0.0 1015540
03:00+16зюз88745 0.0 1014497
06:00+16зюз45738 0.0 1014509
09:00+16зсз33730 0.0 1015372
12:00+16з44690 0.0 1016397
15:00+16з33645 0.0 1016333
18:00+16зюз226321 0.0 1015297
21:00+16зюз33735 0.0 1016127